Flag for U.S.A. Weather past 2 weeks in Portsmouth, Virginia, U.S.A.

Now
31 °F

Sunny.


Feels Like: 19 °F
Forecast: 29 / 40 °F
Wind: 17 mph from North

Location: Norfolk Naval Air Station

Current Time: Jan 28, 2015 at 9:22:57 AM

Latest Report: Jan 28, 2015 at 8:59 AM


Visibility: 10 mi

Pressure: 30.20 "Hg

Humidity: 47%

Dew point: 13 °F

Location of PortsmouthLocation

Historic Weather in Portsmouth — Graph

°F

Portsmouth temperature yesterday

Maximum temperature yesterday: 40 °F (at 2:59 PM)
Minimum temperature yesterday: 33 °F (at 3:59 AM)
Average temperature yesterday: 36 °F

Past Weeks' High & Low Weather Summary

 TemperatureHumidityPressure
High62 °F (Jan 18, 8:59 AM)100% (Jan 22, 4:59 AM)30.49 "Hg (Jan 22, 4:59 AM)
Low30 °F (Jan 28, 5:59 AM)35% (Jan 16, 3:59 PM)29.44 "Hg (Jan 24, 12:59 PM)
Average43 °F68%30.03 "Hg
* Reported Jan 13 7:59 AM — Jan 28 7:59 AM, Portsmouth, Weather by CustomWeather, © 2014

Note: Actual official high and low records may vary slightly from our data, if they occured in-between our weather recording intervals... More about our weather records

Advertising

Portsmouth weather history for previous 24 hours

 ConditionsComfort  
Time TempWeatherWind HumidityBarometerVisibility
7:59 AM
Jan 28
30 °FPassing clouds.16 mph54%30.17 "Hg10 mi
6:59 AM30 °FPassing clouds.15 mph54%30.13 "Hg10 mi
5:59 AM30 °FClear.18 mph56%30.10 "Hg10 mi
4:59 AM31 °FClear.13 mph54%30.07 "Hg10 mi
3:59 AM32 °FPassing clouds.15 mph52%30.03 "Hg10 mi
2:59 AM33 °FPassing clouds.18 mph48%30.01 "Hg10 mi
1:59 AM34 °FOvercast.16 mph50%29.99 "Hg10 mi
12:59 AM35 °FPassing clouds.15 mph52%29.97 "Hg10 mi
11:59 PM
Jan 27
35 °FOvercast.16 mph54%29.95 "Hg10 mi
10:59 PM36 °FMostly cloudy.16 mph54%29.93 "Hg10 mi
9:59 PM37 °FPartly cloudy.15 mph57%29.92 "Hg10 mi
8:59 PM38 °FPassing clouds.16 mph58%29.90 "Hg10 mi
7:59 PM38 °FPassing clouds.13 mph60%29.87 "Hg10 mi
6:59 PM37 °FPassing clouds.15 mph62%29.86 "Hg10 mi
5:59 PM38 °FPassing clouds.12 mph63%29.84 "Hg10 mi
4:59 PM39 °FScattered clouds.12 mph60%29.81 "Hg10 mi
3:59 PM38 °FScattered clouds.10 mph63%29.78 "Hg10 mi
2:59 PM40 °FScattered clouds.12 mph60%29.77 "Hg10 mi
1:59 PM38 °FBroken clouds.13 mph68%29.76 "Hg10 mi
12:59 PM36 °FPartly sunny.15 mph67%29.77 "Hg10 mi
11:59 AM36 °FOvercast.12 mph67%29.78 "Hg10 mi
10:59 AM35 °FOvercast.12 mph70%29.79 "Hg10 mi
9:59 AM35 °FOvercast.13 mph70%29.78 "Hg10 mi
Weather by CustomWeather, © 2014

See weather overviewHow to use our weather pages